When you browse on this site, cookies collect data to enhance your experience and personalize the content and advertising you see.
Visit our Privacy Policy to learn more. By continuing to use the site, you agree to this use of cookies and data.
  • în România
  • Lista ţărilor
  • Pe 7 zile
  • Temperatura apei
  • Meteo pe hartă
  • Widget-uri
  • user-avatar
    Intrare

    Meteo pe oră la Świętochłowice

    Astăzi, 24 August, Sâmbătă

    Timp Temperatura Precipitaţii Vânt Presiune Umiditate
    00:00 +18°C° 0 mm 3 m/s 743 mmHg 83%
    01:00 +18°C° 0 mm 3 m/s 743 mmHg 83%
    02:00 +18°C° 0 mm 3 m/s 742 mmHg 83%
    03:00 +17°C° 0 mm 3 m/s 742 mmHg 82%
    04:00 +17°C° 0 mm 3 m/s 742 mmHg 82%
    05:00 +18°C° 0 mm 3 m/s 742 mmHg 79%
    06:00 +18°C° 0 mm 4 m/s 742 mmHg 75%
    07:00 +19°C° 0 mm 4 m/s 742 mmHg 72%
    08:00 +21°C° 0 mm 4 m/s 742 mmHg 67%
    09:00 +22°C° 0 mm 4 m/s 742 mmHg 62%
    10:00 +25°C° 0 mm 4 m/s 743 mmHg 57%
    11:00 +26°C° 0 mm 4 m/s 742 mmHg 55%
    12:00 +27°C° 0 mm 4 m/s 742 mmHg 54%
    13:00 +28°C° 0 mm 4 m/s 742 mmHg 52%
    14:00 +28°C° 0 mm 4 m/s 742 mmHg 53%
    15:00 +27°C° 0 mm 4 m/s 741 mmHg 54%
    16:00 +27°C° 0 mm 5 m/s 741 mmHg 55%
    17:00 +26°C° 0 mm 4 m/s 741 mmHg 59%
    18:00 +25°C° 0 mm 4 m/s 741 mmHg 64%
    19:00 +22°C° 0 mm 4 m/s 741 mmHg 68%
    20:00 +22°C° 0 mm 4 m/s 741 mmHg 70%
    21:00 +21°C° 0 mm 4 m/s 741 mmHg 72%
    22:00 +21°C° 0 mm 4 m/s 741 mmHg 73%
    23:00 +20°C° 0 mm 4 m/s 741 mmHg 74%

    Mâine, 25 August, Duminică

    Timp Temperatura Precipitaţii Vânt Presiune Umiditate
    00:00 +20°C° 0 mm 4 m/s 741 mmHg 75%
    01:00 +19°C° 0 mm 4 m/s 741 mmHg 76%
    02:00 +19°C° 0 mm 4 m/s 741 mmHg 77%
    03:00 +18°C° 0 mm 4 m/s 740 mmHg 77%
    04:00 +18°C° 0 mm 4 m/s 740 mmHg 78%
    05:00 +18°C° 0 mm 4 m/s 740 mmHg 76%
    06:00 +19°C° 0 mm 4 m/s 740 mmHg 74%
    07:00 +19°C° 0 mm 4 m/s 740 mmHg 72%
    08:00 +21°C° 0 mm 4 m/s 740 mmHg 67%
    09:00 +22°C° 0 mm 4 m/s 740 mmHg 63%
    10:00 +25°C° 0 mm 3 m/s 741 mmHg 59%
    11:00 +26°C° 0 mm 3 m/s 740 mmHg 57%
    12:00 +27°C° 0 mm 3 m/s 740 mmHg 55%
    13:00 +28°C° 0 mm 3 m/s 740 mmHg 53%
    14:00 +28°C° 0 mm 3 m/s 740 mmHg 54%
    15:00 +28°C° 0 mm 3 m/s 740 mmHg 55%
    16:00 +28°C° 0 mm 3 m/s 740 mmHg 56%
    17:00 +27°C° 0 mm 3 m/s 740 mmHg 62%
    18:00 +26°C° 0 mm 3 m/s 739 mmHg 69%
    19:00 +24°C° 0 mm 2 m/s 739 mmHg 75%
    20:00 +24°C° 0 mm 2 m/s 740 mmHg 78%
    21:00 +23°C° 0 mm 2 m/s 740 mmHg 82%
    22:00 +21°C° 0 mm 2 m/s 740 mmHg 85%
    23:00 +21°C° 0 mm 2 m/s 740 mmHg 86%

    Poimâine, 26 August, Luni

    Timp Temperatura Precipitaţii Vânt Presiune Umiditate
    00:00 +21°C° 0 mm 2 m/s 740 mmHg 88%
    01:00 +20°C° 0 mm 2 m/s 739 mmHg 89%
    02:00 +20°C° 0 mm 2 m/s 739 mmHg 90%
    03:00 +19°C° 0 mm 2 m/s 739 mmHg 90%
    04:00 +19°C° 0 mm 2 m/s 739 mmHg 91%
    05:00 +20°C° 0 mm 2 m/s 739 mmHg 87%
    06:00 +22°C° 0 mm 1 m/s 739 mmHg 83%
    07:00 +23°C° 0 mm 1 m/s 739 mmHg 78%
    08:00 +25°C° 0 mm 1 m/s 739 mmHg 70%
    09:00 +27°C° 0 mm 1 m/s 740 mmHg 61%
    10:00 +29°C° 0 mm 1 m/s 740 mmHg 53%
    11:00 +30°C° 0 mm 1 m/s 740 mmHg 48%
    12:00 +32°C° 0 mm 1 m/s 740 mmHg 44%
    13:00 +33°C° 0 mm 1 m/s 740 mmHg 39%
    14:00 +33°C° 0 mm 1 m/s 740 mmHg 39%
    15:00 +32°C° 0 mm 1 m/s 739 mmHg 40%
    16:00 +32°C° 0 mm 1 m/s 739 mmHg 40%
    17:00 +30°C° 0 mm 2 m/s 739 mmHg 46%
    18:00 +29°C° 0 mm 2 m/s 739 mmHg 53%
    19:00 +27°C° 0 mm 2 m/s 739 mmHg 59%
    20:00 +26°C° 0 mm 2 m/s 739 mmHg 62%
    21:00 +25°C° 0 mm 2 m/s 739 mmHg 66%
    22:00 +25°C° 0 mm 2 m/s 739 mmHg 69%
    23:00 +24°C° 0.1 mm 1 m/s 739 mmHg 71%

    27 August, Marţi

    Timp Temperatura Precipitaţii Vânt Presiune Umiditate
    00:00 +24°C° 0.1 mm 1 m/s 739 mmHg 73%
    01:00 +23°C° 0.1 mm 1 m/s 739 mmHg 75%
    02:00 +23°C° 0.1 mm 1 m/s 739 mmHg 76%
    03:00 +23°C° 0.1 mm 1 m/s 739 mmHg 77%
    04:00 +22°C° 0.1 mm 1 m/s 739 mmHg 78%
    05:00 +23°C° 0 mm 1 m/s 739 mmHg 76%
    06:00 +24°C° 0 mm 1 m/s 739 mmHg 73%
    07:00 +25°C° 0 mm 1 m/s 739 mmHg 71%
    08:00 +26°C° 0 mm 1 m/s 739 mmHg 64%
    09:00 +28°C° 0 mm 1 m/s 739 mmHg 57%
    10:00 +30°C° 0 mm 1 m/s 740 mmHg 50%
    11:00 +31°C° 0 mm 1 m/s 740 mmHg 46%
    12:00 +32°C° 0 mm 1 m/s 740 mmHg 42%
    13:00 +33°C° 0 mm 1 m/s 739 mmHg 38%
    14:00 +33°C° 0 mm 1 m/s 739 mmHg 38%
    15:00 +34°C° 0 mm 2 m/s 739 mmHg 39%
    16:00 +34°C° 0 mm 2 m/s 739 mmHg 39%
    17:00 +31°C° 0 mm 2 m/s 739 mmHg 46%
    18:00 +29°C° 0 mm 2 m/s 739 mmHg 52%
    19:00 +28°C° 0 mm 3 m/s 739 mmHg 59%
    20:00 +27°C° 0 mm 2 m/s 739 mmHg 63%
    21:00 +26°C° 0 mm 2 m/s 739 mmHg 67%
    22:00 +25°C° 0 mm 2 m/s 739 mmHg 70%
    23:00 +25°C° 0 mm 2 m/s 739 mmHg 72%

    28 August, Miercuri

    Timp Temperatura Precipitaţii Vânt Presiune Umiditate
    00:00 +24°C° 0 mm 2 m/s 739 mmHg 74%
    01:00 +24°C° 0 mm 2 m/s 739 mmHg 76%
    02:00 +23°C° 0.2 mm 1 m/s 738 mmHg 77%
    03:00 +23°C° 0.2 mm 1 m/s 738 mmHg 78%
    04:00 +23°C° 0.2 mm 1 m/s 738 mmHg 79%
    05:00 +23°C° 0.1 mm 1 m/s 738 mmHg 76%
    06:00 +24°C° 0.1 mm 1 m/s 738 mmHg 73%
    07:00 +25°C° 0.1 mm 1 m/s 738 mmHg 70%
    08:00 +27°C° 0 mm 1 m/s 738 mmHg 62%
    09:00 +29°C° 0 mm 1 m/s 738 mmHg 55%
    10:00 +31°C° 0 mm 1 m/s 738 mmHg 47%
    11:00 +32°C° 0 mm 1 m/s 738 mmHg 43%
    12:00 +33°C° 0 mm 1 m/s 738 mmHg 39%
    13:00 +34°C° 0 mm 1 m/s 737 mmHg 35%
    14:00 +34°C° 0 mm 2 m/s 737 mmHg 37%
    15:00 +34°C° 0 mm 2 m/s 737 mmHg 39%
    16:00 +32°C° 0 mm 2 m/s 736 mmHg 41%
    17:00 +31°C° 0 mm 2 m/s 736 mmHg 46%
    18:00 +29°C° 0 mm 3 m/s 736 mmHg 52%
    19:00 +28°C° 0 mm 3 m/s 736 mmHg 57%
    20:00 +27°C° 0 mm 3 m/s 736 mmHg 61%
    21:00 +26°C° 0 mm 2 m/s 736 mmHg 65%
    22:00 +26°C° 0 mm 2 m/s 736 mmHg 69%
    23:00 +25°C° 0 mm 2 m/s 736 mmHg 70%

    29 August, Joi

    Timp Temperatura Precipitaţii Vânt Presiune Umiditate
    00:00 +24°C° 0 mm 2 m/s 736 mmHg 72%
    01:00 +24°C° 0 mm 1 m/s 736 mmHg 73%
    02:00 +23°C° 0.2 mm 1 m/s 736 mmHg 74%
    03:00 +23°C° 0.2 mm 1 m/s 735 mmHg 75%
    04:00 +23°C° 0.2 mm 1 m/s 735 mmHg 76%
    05:00 +23°C° 0.6 mm 1 m/s 735 mmHg 74%
    06:00 +24°C° 0.6 mm 1 m/s 735 mmHg 72%
    07:00 +25°C° 0.6 mm 1 m/s 735 mmHg 70%
    08:00 +26°C° 0 mm 1 m/s 735 mmHg 63%
    09:00 +28°C° 0 mm 1 m/s 736 mmHg 56%
    10:00 +30°C° 0 mm 1 m/s 736 mmHg 48%
    11:00 +31°C° 0 mm 1 m/s 736 mmHg 45%
    12:00 +32°C° 0 mm 1 m/s 736 mmHg 41%
    13:00 +33°C° 0 mm 1 m/s 735 mmHg 38%
    14:00 +33°C° 0 mm 1 m/s 735 mmHg 39%
    15:00 +32°C° 0 mm 1 m/s 735 mmHg 40%
    16:00 +32°C° 0 mm 1 m/s 735 mmHg 41%
    17:00 +30°C° 1 mm 2 m/s 735 mmHg 51%
    18:00 +27°C° 1 mm 2 m/s 735 mmHg 61%
    19:00 +24°C° 1 mm 2 m/s 735 mmHg 71%
    20:00 +24°C° 1.1 mm 2 m/s 735 mmHg 72%
    21:00 +23°C° 1.1 mm 2 m/s 735 mmHg 73%
    22:00 +23°C° 1.1 mm 2 m/s 735 mmHg 74%
    23:00 +23°C° 0 mm 2 m/s 735 mmHg 76%
    Arată mai mult